• In Uzbekistan
  • List of Countries
  • For 7 days
  • Water Temperature
  • Weather Map
  • Weather Widgets
  • user-avatar
    Login

    Hourly Weather Nizhneangarsk

    Today, 19 November, Tuesday

    Time Temperature Precipitation Wind Pressure Humidity
    00:00 -26°C° 0 mm 4 mps 726 mmHg 72%
    01:00 -25°C° 0 mm 3 mps 725 mmHg 72%
    02:00 -25°C° 0 mm 3 mps 725 mmHg 71%
    03:00 -26°C° 0 mm 4 mps 725 mmHg 71%
    04:00 -26°C° 0 mm 4 mps 724 mmHg 70%
    05:00 -26°C° 0 mm 4 mps 724 mmHg 69%
    06:00 -26°C° 0 mm 4 mps 724 mmHg 68%
    07:00 -24°C° 0 mm 3 mps 724 mmHg 66%
    08:00 -22°C° 0 mm 3 mps 724 mmHg 66%
    09:00 -21°C° 0 mm 3 mps 723 mmHg 66%
    10:00 -18°C° 0 mm 3 mps 723 mmHg 67%
    11:00 -17°C° 0 mm 3 mps 723 mmHg 69%
    12:00 -17°C° 0 mm 3 mps 723 mmHg 71%
    13:00 -16°C° 0 mm 3 mps 722 mmHg 72%
    14:00 -18°C° 0 mm 3 mps 723 mmHg 72%
    15:00 -19°C° 0 mm 3 mps 723 mmHg 72%
    16:00 -22°C° 0 mm 3 mps 723 mmHg 71%
    17:00 -22°C° 0 mm 3 mps 723 mmHg 68%
    18:00 -22°C° 0 mm 3 mps 723 mmHg 64%
    19:00 -20°C° 0 mm 2 mps 723 mmHg 61%
    20:00 -20°C° 0 mm 2 mps 723 mmHg 60%
    21:00 -20°C° 0 mm 2 mps 723 mmHg 59%
    22:00 -20°C° 0 mm 2 mps 723 mmHg 59%
    23:00 -20°C° 0 mm 2 mps 723 mmHg 61%

    Tomorrow, 20 November, Wednesday

    Time Temperature Precipitation Wind Pressure Humidity
    00:00 -20°C° 0 mm 2 mps 723 mmHg 62%
    01:00 -20°C° 0 mm 2 mps 723 mmHg 64%
    02:00 -20°C° 0 mm 2 mps 722 mmHg 65%
    03:00 -20°C° 0 mm 2 mps 722 mmHg 66%
    04:00 -20°C° 0 mm 2 mps 722 mmHg 67%
    05:00 -20°C° 0 mm 2 mps 722 mmHg 69%
    06:00 -20°C° 0 mm 2 mps 722 mmHg 70%
    07:00 -19°C° 0 mm 2 mps 722 mmHg 72%
    08:00 -18°C° 0 mm 2 mps 721 mmHg 75%
    09:00 -17°C° 0 mm 2 mps 721 mmHg 77%
    10:00 -15°C° 0 mm 2 mps 720 mmHg 80%
    11:00 -15°C° 0 mm 2 mps 720 mmHg 83%
    12:00 -15°C° 0 mm 3 mps 719 mmHg 86%
    13:00 -15°C° 0 mm 3 mps 719 mmHg 89%
    14:00 -16°C° 0 mm 3 mps 719 mmHg 90%
    15:00 -16°C° 0 mm 3 mps 719 mmHg 91%
    16:00 -17°C° 0 mm 3 mps 718 mmHg 93%
    17:00 -17°C° 0 mm 3 mps 718 mmHg 90%
    18:00 -16°C° 0 mm 3 mps 718 mmHg 87%
    19:00 -16°C° 0 mm 3 mps 718 mmHg 85%
    20:00 -16°C° 0 mm 3 mps 717 mmHg 83%
    21:00 -16°C° 0 mm 3 mps 717 mmHg 82%
    22:00 -16°C° 0 mm 3 mps 717 mmHg 80%
    23:00 -16°C° 0 mm 3 mps 717 mmHg 79%

    Day after tomorrow, 21 November, Thursday

    Time Temperature Precipitation Wind Pressure Humidity
    00:00 -16°C° 0 mm 3 mps 717 mmHg 79%
    01:00 -17°C° 0 mm 3 mps 716 mmHg 78%
    02:00 -16°C° 0 mm 3 mps 716 mmHg 77%
    03:00 -16°C° 0 mm 3 mps 716 mmHg 76%
    04:00 -16°C° 0 mm 3 mps 716 mmHg 76%
    05:00 -15°C° 0 mm 3 mps 715 mmHg 76%
    06:00 -15°C° 0 mm 3 mps 715 mmHg 76%
    07:00 -14°C° 0 mm 3 mps 715 mmHg 77%
    08:00 -13°C° 0 mm 3 mps 715 mmHg 78%
    09:00 -12°C° 0 mm 3 mps 715 mmHg 80%
    10:00 -9°C° 0 mm 2 mps 715 mmHg 81%
    11:00 -9°C° 0.1 mm 2 mps 715 mmHg 84%
    12:00 -8°C° 0.1 mm 2 mps 715 mmHg 87%
    13:00 -9°C° 0.1 mm 3 mps 715 mmHg 90%
    14:00 -9°C° 0.2 mm 2 mps 715 mmHg 91%
    15:00 -10°C° 0.2 mm 2 mps 715 mmHg 92%
    16:00 -12°C° 0.2 mm 2 mps 716 mmHg 93%
    17:00 -14°C° 0.2 mm 3 mps 716 mmHg 91%
    18:00 -16°C° 0.2 mm 4 mps 717 mmHg 90%
    19:00 -17°C° 0.2 mm 5 mps 717 mmHg 88%
    20:00 -18°C° 0.1 mm 5 mps 717 mmHg 87%
    21:00 -19°C° 0.1 mm 5 mps 718 mmHg 87%
    22:00 -21°C° 0.1 mm 6 mps 718 mmHg 86%
    23:00 -21°C° 0 mm 6 mps 718 mmHg 86%

    22 November, Friday

    Time Temperature Precipitation Wind Pressure Humidity
    00:00 -22°C° 0 mm 6 mps 719 mmHg 86%
    01:00 -23°C° 0 mm 6 mps 719 mmHg 86%
    02:00 -23°C° 0 mm 6 mps 719 mmHg 86%
    03:00 -23°C° 0 mm 6 mps 720 mmHg 86%
    04:00 -24°C° 0 mm 6 mps 720 mmHg 86%
    05:00 -24°C° 0 mm 6 mps 720 mmHg 86%
    06:00 -26°C° 0 mm 6 mps 721 mmHg 86%
    07:00 -25°C° 0 mm 5 mps 721 mmHg 86%
    08:00 -25°C° 0 mm 5 mps 721 mmHg 86%
    09:00 -25°C° 0 mm 5 mps 721 mmHg 86%
    10:00 -24°C° 0 mm 5 mps 722 mmHg 86%
    11:00 -24°C° 0 mm 5 mps 722 mmHg 85%
    12:00 -24°C° 0 mm 5 mps 722 mmHg 84%
    13:00 -24°C° 0 mm 5 mps 722 mmHg 83%
    14:00 -25°C° 0 mm 5 mps 722 mmHg 84%
    15:00 -26°C° 0 mm 5 mps 723 mmHg 85%
    16:00 -27°C° 0 mm 5 mps 723 mmHg 86%
    17:00 -27°C° 0 mm 5 mps 723 mmHg 86%
    18:00 -27°C° 0 mm 5 mps 724 mmHg 85%
    19:00 -26°C° 0 mm 4 mps 724 mmHg 85%
    20:00 -26°C° 0 mm 4 mps 724 mmHg 85%
    21:00 -25°C° 0 mm 4 mps 724 mmHg 85%
    22:00 -24°C° 0 mm 3 mps 725 mmHg 85%
    23:00 -24°C° 0 mm 3 mps 725 mmHg 85%

    23 November, Saturday

    Time Temperature Precipitation Wind Pressure Humidity
    00:00 -24°C° 0 mm 3 mps 725 mmHg 85%
    01:00 -24°C° 0 mm 3 mps 725 mmHg 85%
    02:00 -24°C° 0 mm 3 mps 725 mmHg 85%
    03:00 -24°C° 0 mm 3 mps 725 mmHg 85%
    04:00 -24°C° 0 mm 3 mps 725 mmHg 84%
    05:00 -24°C° 0 mm 3 mps 725 mmHg 85%
    06:00 -24°C° 0 mm 3 mps 725 mmHg 85%
    07:00 -24°C° 0 mm 3 mps 726 mmHg 86%
    08:00 -23°C° 0 mm 3 mps 726 mmHg 86%
    09:00 -20°C° 0 mm 2 mps 726 mmHg 86%
    10:00 -19°C° 0 mm 2 mps 726 mmHg 86%
    11:00 -18°C° 0 mm 2 mps 725 mmHg 84%
    12:00 -18°C° 0 mm 2 mps 725 mmHg 82%
    13:00 -17°C° 0 mm 2 mps 725 mmHg 80%
    14:00 -21°C° 0 mm 3 mps 725 mmHg 82%
    15:00 -23°C° 0 mm 4 mps 726 mmHg 85%
    16:00 -24°C° 0 mm 4 mps 726 mmHg 88%
    17:00 -24°C° 0 mm 4 mps 726 mmHg 87%
    18:00 -24°C° 0 mm 4 mps 726 mmHg 87%
    19:00 -24°C° 0 mm 4 mps 727 mmHg 87%
    20:00 -24°C° 0 mm 4 mps 727 mmHg 86%
    21:00 -24°C° 0 mm 4 mps 726 mmHg 86%
    22:00 -24°C° 0 mm 4 mps 726 mmHg 86%
    23:00 -23°C° 0 mm 3 mps 726 mmHg 86%

    24 November, Sunday

    Time Temperature Precipitation Wind Pressure Humidity
    00:00 -23°C° 0 mm 3 mps 726 mmHg 86%
    01:00 -23°C° 0 mm 3 mps 726 mmHg 86%
    02:00 -23°C° 0 mm 3 mps 726 mmHg 87%
    03:00 -23°C° 0 mm 3 mps 726 mmHg 87%
    04:00 -23°C° 0 mm 3 mps 726 mmHg 88%
    05:00 -21°C° 0.1 mm 2 mps 725 mmHg 87%
    06:00 -20°C° 0.1 mm 2 mps 725 mmHg 86%
    07:00 -20°C° 0.1 mm 2 mps 725 mmHg 86%
    08:00 -19°C° 0.1 mm 2 mps 725 mmHg 86%
    09:00 -18°C° 0.1 mm 2 mps 724 mmHg 86%
    10:00 -17°C° 0.1 mm 2 mps 724 mmHg 85%
    11:00 -16°C° 0.1 mm 2 mps 723 mmHg 86%
    12:00 -15°C° 0.1 mm 2 mps 723 mmHg 87%
    13:00 -13°C° 0.1 mm 1 mps 722 mmHg 88%
    14:00 -15°C° 0.1 mm 2 mps 723 mmHg 90%
    15:00 -16°C° 0.1 mm 2 mps 723 mmHg 92%
    16:00 -16°C° 0.1 mm 2 mps 723 mmHg 93%
    17:00 -18°C° 0.1 mm 3 mps 724 mmHg 91%
    18:00 -19°C° 0.1 mm 4 mps 724 mmHg 88%
    19:00 -21°C° 0.1 mm 5 mps 725 mmHg 85%
    20:00 -24°C° 0 mm 6 mps 726 mmHg 85%
    21:00 -26°C° 0 mm 6 mps 726 mmHg 86%
    22:00 -28°C° 0 mm 6 mps 727 mmHg 87%
    23:00 -28°C° 0 mm 6 mps 728 mmHg 87%
    Show more